Regional Weather Roundup
Issued by NWS Grand Forks, ND

Home | Current Version | Previous Version | Graphics & Text | Print | Product List | Glossary On
Versions: 1 2 3 4 5 6 7 8 9 10 11 12 13 14 15 16 17 18 19 20 21 22 23 24 25 26 27 28 29 30 31 32 33 34 35 36 37 38 39 40 41 42 43 44 45 46 47 48 49 50
000
ASUS43 KFGF 282331
RWRFGF
PRAIRIE TO PINES  WEATHER ROUNDUP
NATIONAL WEATHER SERVICE EASTERN NORTH DAKOTA/GRAND FORKS ND
500 PM CST FRI NOV 28 2014

 **SATELLITE DATA USED TO AUGMENT SKY COVER AT AUTOMATED STATIONS**
 *****  WEATHER ACROSS EASTERN NORTH DAKOTA  *****

CITY           SKY/WX    TMP DP  RH WIND       PRES   REMARKS
GRAND FORKS    CLOUDY    16  10  77 SE10      29.76F WCI   4
GRAND FRKS AFB CLOUDY    15  10  81 SE10      29.77F WCI   2
GRAND FRKS NWS   N/A     16 N/A N/A SE12        N/A  WCI   3
DEVILS LAKE    MOCLDY    12   3  67 SE13G21   29.65F WCI  -3
FARGO          PTCLDY    17   9  70 E7        29.75F WCI   8
WAHPETON ARPT  MOCLDY    18  12  79 SE7       29.76S WCI   8
$$

 ***** WEATHER ACROSS CENTRAL AND WESTERN NORTH DAKOTA  *****

CITY           SKY/WX    TMP DP  RH WIND       PRES   REMARKS
BISMARCK       PTCLDY    21  16  81 E10       29.57F WCI  10
MINOT          PTCLDY    13   8  81 SE14      29.53F WCI  -2
JAMESTOWN      MOCLDY    14   9  80 SE10      29.67F WCI   1
MINOT AFB      PTCLDY    12   9  88 SE14      29.53F WCI  -4
GARRISON         N/A     16  12  84 E10       29.52F WCI   4
WILLISTON      PTCLDY    24  19  81 SE3       29.44F
DICKINSON      CLOUDY    38  32  79 S10       29.44F
HETTINGER      CLOUDY    43  32  65 S5        29.50F
$$

 *****  OTHER AIRPORT OBSERVATIONS IN OUR AREA  *****

CITY           SKY/WX    TMP DP  RH WIND       PRES   REMARKS
WALHALLA         N/A     14  14 100 SE9       29.75F WCI   2
GRAFTON AIRPOR CLOUDY    14  10  85 SE14      29.76F WCI  -1
VALLEY CITY AR CLOUDY    14  14 100 SE13      29.69F WCI   0
CANDO          CLOUDY    14   9  79 SE13      29.65F WCI   0
CAVALIER APRT  CLOUDY    16  12  86 S8        29.76F FOG     WCI   5
GWINNER        CLOUDY    18  12  79 E9        29.72S WCI   6
ROLLA          CLOUDY    10   7  85 SE14      29.61F WCI  -5
 ***** THE ABOVE OBSERVATIONS ARE NON NWS ARE NOT QUALITY
       CONTROLLED AND MAY MIS-REPORT RAIN FOR SNOW...
$$

  *****  WEATHER ACROSS NORTHERN MINNESOTA  *****

CITY           SKY/WX    TMP DP  RH WIND       PRES   REMARKS
FLAG ISLAND    CLOUDY    12   7  79 E8        29.81F WCI   1
WARROAD        CLOUDY    16  10  79 E12       29.79F WCI   3
ROSEAU         CLOUDY    16  10  79 E10       29.78F WCI   3
HALLOCK        CLOUDY    18  12  79 SE10      29.77F WCI   6
THF RVR FALLS  CLOUDY    16  10  79 E12       29.75F WCI   3
BAUDETTE       CLOUDY    15   8  73 E12       29.80F WCI   2
WASKISH        CLOUDY    16  10  79 CALM      29.80F
CROOKSTON      CLOUDY    18  12  79 SE9       29.78F WCI   6
STEPHEN NDAWN    N/A     18  10  73 SE12        N/A  WCI   5
GREENBUSH NDAW   N/A     18  12  79 SE13        N/A  WCI   4
$$
  *****  WEATHER ACROSS CENTRAL AND WEST MINNESOTA  *****

CITY           SKY/WX    TMP DP  RH WIND       PRES   REMARKS
FOSSTON        CLOUDY    12   9  85 SE9       29.75F WCI   0
BEMIDJI        CLOUDY    15   9  78 SE10      29.77F WCI   2
PARK RAPIDS    CLOUDY    15   9  76 SE10      29.77F WCI   2
ELBOW LAKE     CLOUDY    17  12  81 SE9       29.74F WCI   6
WADENA         CLOUDY    16   9  73 E12       29.76F WCI   3
DETROIT LAKES  PTCLDY    18  12  79 SE13      29.74F WCI   4
MOORHEAD       PTCLDY    18  12  79 SE6       29.76F WCI   9
FERGUS FALLS   CLOUDY    16   9  73 SE12      29.76F WCI   3
MORRIS MN      MOCLDY    19  12  73 SE12      29.76S WCI   7
STAPLES        CLOUDY    16   9  73 SE6       29.79R WCI   7
$$
  *****  WEATHER ELSEWHERE ACROSS MINNESOTA  *****

CITY           SKY/WX    TMP DP  RH WIND       PRES   REMARKS
DULUTH         FLURRIES  16  11  80 E6        29.84R WCI   7
INTRNTL FALLS  CLOUDY    15   8  73 E10       29.83F WCI   2
ELY            FLURRIES  18  12  79 E5        29.84F WCI  11
CLOQUET        CLOUDY    16  10  79 E5        29.85S WCI   9
WHEATON        PTCLDY    16  12  86 SE14      29.76F WCI   1
BRAINERD       CLOUDY    15  10  80 VRB5      29.81F WCI   8
HIBBING        CLOUDY    18  11  74 SE7       29.83F WCI   9
ALEXANDRIA     CLOUDY    16  11  80 E12       29.77R WCI   3
SAINT CLOUD    CLOUDY    21  13  71 E7        29.80F WCI  12
MINNEAPOLIS    MOCLDY    22  15  75 E13       29.82F WCI  10
$$

  *****  WEATHER ACROSS SOUTH DAKOTA  *****

CITY           SKY/WX    TMP DP  RH WIND       PRES   REMARKS
SIOUX FALLS    MOCLDY    31  26  82 E7        29.67R WCI  24
BROOKINGS      NOT AVBL
WATERTOWN      MOCLDY    17  13  84 E7        29.67S WCI   8
HURON          PTCLDY    34  25  69 CALM      29.66S
SISSETON         N/A     16  13  88 S12       29.72F WCI   3
ABERDEEN       CLEAR     19  12  74 E3        29.69R
MITCHELL       CLEAR     36  28  73 E6        29.64F
PIERRE         CLEAR     35  26  69 E8        29.58F
MOBRIDGE       PTCLDY    26  20  77 E13       29.55F WCI  15
RAPID CITY     PTCLDY    56  24  29 W10       29.57R
$$

  *****  SOME WEATHER IN NEARBY STATES *****

CITY           SKY/WX    TMP DP  RH WIND       PRES   REMARKS
GLASGOW MT     MOCLDY    28  24  85 W9        29.43R WCI  19
GREAT FALLS MT CLOUDY    18  16  93 N20       29.47R WCI   1
CHEYENNE WY    CLOUDY    57  12  17 SW17      29.84R
SCOTTSBLUFF NE MOCLDY    59  21  23 W12       29.72R
OMAHA NE       PTCLDY    46  31  55 S9        29.69F
DES MOINES IA  PTCLDY    42  30  62 SE8       29.77F
DAVENPORT IA   MOCLDY    32  26  78 SE9       29.89F WCI  24
CHICAGO IL     CLOUDY    31  25  78 S13       29.97F WCI  21
EAU CLAIRE WI  CLOUDY    23  15  71 E6        29.87S WCI  16
LA CROSSE WI   CLOUDY    28  20  71 SE3       29.89S
$$

  *****  SOME NATIONAL WEATHER *****

CITY           SKY/WX    TMP DP  RH WIND       PRES   REMARKS
LA GUARDIA NY  PTCLDY    32  14  47 N14G22    30.23R WCI  22
RALEIGH NC     PTCLDY    36  23  59 CALM      30.30S
ATLANTA GA     CLEAR     47  13  25 W3        30.28S
NEW ORLEANS LA PTCLDY    56  42  59 E6        30.30R
OKLAHOMA CITY  MOCLDY    65  41  41 S15       29.89S
ALBUQUERQUE NM PTCLDY    60  20  21 S7        30.10F
SALT LAKE CITY MOCLDY    64  14  14 S17G28    29.83F
LOS ANGELES CA MOSUNNY   72  50  45 W9        29.89F
BOISE ID       CLOUDY    59  29  31 E3        29.68F
SEATTLE WA     CLOUDY    39  37  93 NE12      29.48R FOG
$$

*** WEATHER ACROSS MANITOBA...SASKATCHEWAN AND ONTARIO ***
                ***ONTARIO***

CITY           SKY/WX    TMP DP  RH WIND       PRES   REMARKS
GERALDTON      PTCLDY    -4  -8  84 CALM      30.00R
THUNDER BAY    CLOUDY    14  10  85 NE5       29.98F WCI   6
SIOUX LOOKOUT  CLOUDY     7  -2  66 E3        29.90F
TORONTO        MOCLDY    25  14  63 SW12      30.21R WCI  14
BIG TROUT LK   CLEAR    -18 -24  76 NW3       30.04S
PICKLE LAKE    MOCLDY    -2  -8  78 E3        29.95F
DRYDEN         CLOUDY    10   1  67 E8        29.85F WCI  -1
KENORA         FLURRIES  10   1  67 E10       29.82F WCI  -3
$$
                *** MANITOBA***

CITY           SKY/WX    TMP DP  RH WIND       PRES   REMARKS
BRANDON        LGT SNOW   7   3  85 E17       29.67F DRFTSNOWWCI -12
DAUPHIN        LGT SNOW   7   3  85 E14       29.77F VSB 1   WCI -10
ISLAND LAKE    CLOUDY    -9 -18  64 NE2       30.02F
PILOT MOUND      N/A     10   7  85 SE15        N/A  WCI  -6
THE PAS        LGT SNOW  -6 -11  77 E8        29.93F VSB 3/4 WCI -21
THOMPSON       MOCLDY   -15 -20  76 CALM      30.01F
WINNIPEG       LGT SNOW  12   5  73 E10G18    29.79F WCI  -1
LYNN LAKE      PTCLDY   -11 -17  77 W3        29.94F
CHURCHILL      CLEAR    -13 -20  70 W10       29.98F WCI -32
GILLAM         PTCLDY   -15 -22  70 SW7       30.03F WCI -31
$$
                ***SASKATCHEWAN***

CITY           SKY/WX    TMP DP  RH WIND       PRES   REMARKS
ESTEVAN        CLOUDY    10   7  85 SE15      29.49F WCI  -6
KINDERSLEY     FLURRIES   0  -6  78 N15G21    29.61  WCI -20
LLOYDMINSTER   LGT SNOW  -4  -9  77 N13       29.69S WCI -23
PRINCE ALBERT  LGT SNOW  -4  -9  77 E16       29.72F DRFTSNOWWCI -25
REGINA         LGT SNOW  10   7  85 SE15      29.51F FOG     WCI  -6
YORKTON        LGT SNOW   3  -2  78 E17G23    29.63S WCI -17
N. BATTLEFORD  LGT SNOW   0  -6  78 N9        29.71R WCI -16
LA RONGE       LGT SNOW  -8 -13  77 NE15      29.88F WCI -29
SASKATOON      LGT SNOW   0  -4  85 NE16      29.64S VSB 3/4 WCI -21
SWIFT CURRENT  LGT SNOW  12  10  92 NW22      29.48S WCI  -7
$$
NOTE: THESE ARE AUTOMATED STATIONS WITH LIMITED QUALITY CONTROL
      "FAIR" INDICATES FEW OR NO CLOUDS BELOW 12,000 FEET WITH NO
      SIGNIFICANT WEATHER AND/OR OBSTRUCTIONS TO VISIBILITY.
      SKY/WX - SKY CONDITION AND SIGNIFICANT WEATHER.
      TMP - AIR TEMPERATURE.    DP   - DEWPOINT TEMPERATURE.
      RH  - RELATIVE HUMIDITY.  PRES - PRESSURE.
      HX  - HEAT INDEX.         WCI  - WIND CHILL INDEX.
$



USA.gov is the U.S. government's official web portal to all federal, state and local government web resources and services.